[[{"header":{"parameterUnit":"m.s-1","parameterCategory":1,"la1":30.2991,"la2":30.254,"lo1":-89.0895,"lo2":-89.0444,"dy":0.0017,"dx":0.0017,"nx":28,"ny":28,"refTime":"2025-03-26T21:00:00:Z","depth":0,"parameterNumber":2,"parameterNumberName":"U-component_of_WINDS"},"data":[0,0,0,0,0,0,0,0,0,0,0,0,0,0,0,0,0,0,0,0,0,0,0,0,0,0,0,0,0,0,0,0,0,0,0,0,0,0,0,0,0,0,0,0,0,0,0,0,0,0,0,0,0,0,0,0,0,0,-1.4346,-1.4346,0,-1.4324,-1.4324,-1.4324,-1.4259,-1.4258,-1.4256,-1.4255,-1.4235,-1.4236,-1.4236,0,0,0,0,0,0,0,0,0,0,0,0,0,-1.4334,-1.4334,-1.4346,-1.4346,-1.4345,-1.4324,-1.4324,-1.4324,-1.4259,-1.4258,-1.4256,-1.4254,-1.4235,-1.4235,-1.4236,0,0,0,0,0,0,0,0,0,0,0,0,0,-1.4328,-1.4334,-1.4346,-1.4311,-1.4307,-1.4324,-1.4324,-1.4324,-1.426,-1.4258,-1.4255,-1.4254,-1.4234,-1.4235,-1.4237,-1.4287,0,0,-1.424,-1.4241,0,0,0,0,0,0,0,0,-1.4329,-1.4329,-1.4316,-1.4313,-1.4309,-1.4292,-1.4312,-1.4311,-1.426,-1.4278,-1.4255,-1.4252,-1.4256,-1.4255,-1.4256,-1.4286,-1.4285,-1.424,-1.4241,-1.4242,-1.4242,0,0,0,0,0,0,0,-1.4329,-1.4329,-1.4337,-1.4316,-1.4312,-1.4297,-1.4294,-1.4312,-1.4279,-1.4276,-1.4271,-1.427,-1.4254,-1.4255,-1.4255,-1.4285,-1.424,-1.4241,-1.4242,-1.4242,-1.4355,-1.4357,0,0,0,0,0,0,-1.4334,-1.433,-1.4338,-1.4337,-1.4314,-1.4299,-1.4295,-1.43,-1.4279,-1.4273,-1.4272,-1.4267,-1.4254,-1.4253,-1.4254,-1.4311,-1.4242,-1.4243,-1.4243,-1.4353,-1.4356,-1.4358,0,0,0,0,0,0,-1.4334,-1.4336,-1.4339,-1.4332,-1.4331,-1.4301,-1.4307,-1.4301,-1.4302,-1.4275,-1.4269,-1.4279,-1.4252,-1.4252,-1.4279,-1.431,-1.4243,-1.4244,-1.435,-1.4354,-1.4357,-1.4427,0,0,0,0,0,0,-1.4334,-1.4336,-1.4354,-1.4333,-1.4332,-1.4364,-1.4309,-1.4302,-1.4304,-1.4297,-1.428,-1.4275,-1.425,-1.4278,-1.428,-1.431,-1.4245,-1.4347,-1.4352,-1.4356,-1.4422,-1.4432,-1.4441,0,0,0,0,0,-1.4334,-1.4375,-1.4355,-1.4357,-1.4354,-1.4366,-1.4365,-1.4335,-1.4306,-1.4325,-1.4308,-1.4276,-1.4306,-1.4281,-1.4283,-1.4314,-1.4345,-1.4351,-1.4356,-1.4417,-1.443,-1.4441,0,0,0,0,0,0,-1.4401,-1.4371,-1.4349,-1.4385,-1.4378,-1.4355,-1.4377,-1.435,-1.4352,-1.4346,-1.4309,-1.4306,-1.4338,-1.4329,-1.4301,-1.4362,-1.432,-1.4326,-1.4366,-1.4378,-1.4388,-1.4389,-1.4246,0,0,0,0,0,-1.442,-1.4431,-1.4405,-1.4439,-1.4436,-1.4408,-1.4412,-1.4389,-1.4381,-1.4378,-1.4363,-1.4357,-1.4365,-1.4371,-1.4377,-1.442,-1.4416,-1.4443,-1.4452,-1.4461,-1.4466,-1.4488,-1.45,-1.4375,-1.4375,-1.4375,0,0,-1.4459,-1.4444,-1.4453,-1.4452,-1.4444,-1.4457,-1.4406,-1.4422,-1.4432,-1.4381,-1.4405,-1.4394,-1.4385,-1.442,-1.4435,-1.4414,-1.45,-1.4467,-1.4474,-1.4475,-1.4495,-1.4507,-1.4517,-1.4379,-1.4378,-1.4377,0,0,-1.4536,-1.4526,-1.4553,-1.4547,-1.4536,-1.4516,-1.4523,-1.4504,-1.4495,-1.4518,-1.4481,-1.4492,-1.4507,-1.4502,-1.4502,-1.4579,-1.455,-1.4582,-1.4633,-1.4655,-1.4665,-1.4673,-1.4701,-1.4711,-1.4587,-1.4588,-1.4588,0,-1.4586,-1.4604,-1.4571,-1.4589,-1.459,-1.4544,-1.4572,-1.4567,-1.4559,-1.4561,-1.4537,-1.4555,-1.4546,-1.4579,-1.4598,-1.4599,-1.4606,-1.4583,-1.4666,-1.4674,-1.4682,-1.4708,-1.4718,-1.4592,-1.4591,-1.4591,-1.459,0,-1.4666,-1.4679,-1.4703,-1.4695,-1.4699,-1.4722,-1.4693,-1.4701,-1.4678,-1.4662,-1.4687,-1.4674,-1.4677,-1.4683,-1.4662,-1.4714,-1.4701,-1.4673,-1.463,-1.4698,-1.4722,-1.4732,-1.4597,-1.4596,-1.4595,-1.4594,0,0,-1.4785,-1.4759,-1.4768,-1.4765,-1.475,-1.4759,-1.4781,-1.4783,-1.4791,-1.4787,-1.4804,-1.4818,-1.4792,-1.4791,-1.4769,-1.4788,-1.4851,-1.4757,-1.4756,-1.4775,-1.4908,-1.4929,-1.4941,-1.4831,-1.4833,-1.4835,-1.4909,0,-1.4858,-1.4892,-1.4864,-1.4904,-1.4916,-1.4873,-1.4892,-1.4885,-1.4871,-1.488,-1.4864,-1.4874,-1.4838,-1.4838,-1.4855,-1.4839,-1.4877,-1.4834,-1.4848,-1.4849,-1.4851,-1.4954,-1.4976,-1.5047,-1.4918,-1.4919,-1.492,0,-1.4948,-1.4948,-1.4989,-1.4972,-1.4976,-1.4993,-1.4993,-1.5002,-1.4994,-1.4982,-1.4982,-1.4955,-1.4976,-1.4935,-1.4963,-1.4934,-1.4939,-1.4932,-1.4934,-1.4934,-1.4888,-1.4956,-1.5068,-1.5079,-1.4935,-1.4934,-1.4932,0,-1.503,-1.5041,-1.5067,-1.5065,-1.5046,-1.5059,-1.5052,-1.5041,-1.5045,-1.5045,-1.5047,-1.505,-1.5052,-1.5056,-1.503,-1.5003,-1.5062,-1.5019,-1.5053,-1.5054,-1.5067,-1.5066,-1.5181,-1.5071,-1.507,-1.507,-1.507,0,-1.5115,-1.5142,-1.5103,-1.5119,-1.5149,-1.5116,-1.5146,-1.5134,-1.5126,-1.5139,-1.5103,-1.5117,-1.5082,-1.5093,-1.5073,-1.5099,-1.5101,-1.5092,-1.5086,-1.5095,-1.5096,-1.5097,-1.5091,-1.5073,-1.5072,-1.5072,-1.5071,0,-1.5211,-1.5187,-1.5212,-1.5192,-1.5187,-1.521,-1.5192,-1.5207,-1.519,-1.5208,-1.521,-1.5185,-1.5195,-1.517,-1.5177,-1.5164,-1.5202,-1.5188,-1.5204,-1.52,-1.5235,-1.5232,-1.5354,-1.5369,-1.525,-1.5251,-1.5252,0,-1.5267,-1.5286,-1.5268,-1.5274,-1.5269,-1.5279,-1.5283,-1.5252,-1.5257,-1.5249,-1.5265,-1.5272,-1.5276,-1.5295,-1.5277,-1.5283,-1.5269,-1.5312,-1.527,-1.5278,-1.5269,-1.5268,-1.527,-1.532,-1.5321,-1.5323,-1.5324,0,-1.5368,-1.5355,-1.536,-1.5362,-1.5367,-1.5367,-1.5365,-1.5372,-1.5339,-1.5347,-1.5356,-1.536,-1.5367,-1.5375,-1.5376,-1.5369,-1.5341,-1.5337,-1.5345,-1.5354,-1.5362,-1.5358,-1.5227,-1.5334,-1.5333,-1.5332,-1.5332,-1.5331,-1.5445,-1.546,-1.545,-1.5458,-1.5453,-1.5452,-1.5464,-1.5449,-1.5457,-1.5459,-1.5441,-1.5455,-1.5447,-1.5446,-1.5442,-1.5453,-1.5434,-1.5446,-1.5449,-1.5452,-1.5458,-1.5361,-1.5454,-1.5453,-1.5453,-1.5453,-1.5453,0,-1.5544,-1.5535,-1.5543,-1.554,-1.5547,-1.552,-1.5516,-1.5523,-1.5536,-1.553,-1.5535,-1.5547,-1.5555,-1.5538,-1.5543,-1.5555,-1.5543,-1.5558,-1.5556,-1.5555,-1.5475,-1.5467,-1.5568,-1.5568,-1.5568,-1.5568,-1.5568,-1.5568,-1.5596,-1.562,-1.5606,-1.5629,-1.562,-1.5633,-1.5633,-1.5632,-1.5628,-1.5642,-1.5648,-1.5637,-1.5628,-1.5632,-1.5638,-1.5633,-1.5637,-1.5656,-1.5647,-1.5572,-1.5561,-1.555,-1.5542,-1.5657,-1.5658,-1.5726,-1.5727,-1.5727]},{"header":{"parameterUnit":"m.s-1","parameterCategory":1,"la1":30.2991,"la2":30.254,"lo1":-89.0895,"lo2":-89.0444,"dy":0.0017,"dx":0.0017,"nx":28,"ny":28,"refTime":"2025-03-26T21:00:00:Z","depth":0,"parameterNumber":3,"parameterNumberName":"V-component_of_WINDS"},"data":[0,0,0,0,0,0,0,0,0,0,0,0,0,0,0,0,0,0,0,0,0,0,0,0,0,0,0,0,0,0,0,0,0,0,0,0,0,0,0,0,0,0,0,0,0,0,0,0,0,0,0,0,0,0,0,0,0,0,-0.7718,-0.7718,0,-0.7796,-0.7797,-0.7797,-0.782,-0.7819,-0.7819,-0.7819,-0.79,-0.7903,-0.7905,0,0,0,0,0,0,0,0,0,0,0,0,0,-0.7589,-0.7591,-0.7718,-0.7719,-0.772,-0.7795,-0.7797,-0.7798,-0.782,-0.7819,-0.7819,-0.7818,-0.7899,-0.7902,-0.7905,0,0,0,0,0,0,0,0,0,0,0,0,0,-0.7654,-0.7592,-0.7717,-0.774,-0.7743,-0.7795,-0.7797,-0.7798,-0.782,-0.7819,-0.7819,-0.7818,-0.7898,-0.7902,-0.7906,-0.7942,0,0,-0.7918,-0.7919,0,0,0,0,0,0,0,0,-0.765,-0.7658,-0.7736,-0.7738,-0.7742,-0.7797,-0.7781,-0.7846,-0.782,-0.7791,-0.7819,-0.7818,-0.7867,-0.7873,-0.7889,-0.7946,-0.795,-0.7918,-0.792,-0.7922,-0.7923,0,0,0,0,0,0,0,-0.7646,-0.7655,-0.7749,-0.7737,-0.774,-0.7746,-0.7755,-0.7794,-0.7831,-0.7793,-0.7795,-0.7804,-0.7868,-0.7885,-0.7891,-0.7951,-0.7918,-0.7921,-0.7924,-0.7925,-0.8042,-0.8043,0,0,0,0,0,0,-0.7637,-0.7651,-0.7746,-0.7751,-0.7693,-0.7749,-0.7759,-0.778,-0.7831,-0.7838,-0.7804,-0.7805,-0.7879,-0.7887,-0.7894,-0.794,-0.7922,-0.7926,-0.7928,-0.8041,-0.8042,-0.8043,0,0,0,0,0,0,-0.7634,-0.7645,-0.7743,-0.7702,-0.7714,-0.7752,-0.7776,-0.7782,-0.7799,-0.7839,-0.7846,-0.7815,-0.7879,-0.7889,-0.793,-0.7943,-0.7927,-0.7931,-0.804,-0.8041,-0.8042,-0.8033,0,0,0,0,0,0,-0.763,-0.7644,-0.7658,-0.7702,-0.7717,-0.7777,-0.7777,-0.7784,-0.7806,-0.7807,-0.7851,-0.7858,-0.7879,-0.7924,-0.7934,-0.7948,-0.7934,-0.8039,-0.8041,-0.8042,-0.8032,-0.8033,-0.8035,0,0,0,0,0,-0.7626,-0.7653,-0.7659,-0.767,-0.7735,-0.7778,-0.7786,-0.781,-0.7807,-0.7821,-0.7847,-0.7856,-0.794,-0.7928,-0.7939,-0.7955,-0.8038,-0.804,-0.8042,-0.8032,-0.8033,-0.8035,0,0,0,0,0,0,-0.7611,-0.7659,-0.7666,-0.7708,-0.7739,-0.7782,-0.7801,-0.7811,-0.7844,-0.7843,-0.7871,-0.7881,-0.7921,-0.7942,-0.7928,-0.7993,-0.799,-0.7994,-0.7978,-0.798,-0.7981,-0.7975,-0.7937,0,0,0,0,0,-0.7612,-0.7643,-0.7683,-0.7716,-0.7731,-0.7763,-0.7783,-0.7798,-0.7831,-0.7844,-0.7873,-0.7905,-0.7939,-0.796,-0.7994,-0.8035,-0.8045,-0.8051,-0.8053,-0.8054,-0.8057,-0.808,-0.8084,-0.8049,-0.8049,-0.8049,0,0,-0.7616,-0.7646,-0.7663,-0.7714,-0.774,-0.7771,-0.7774,-0.7807,-0.7831,-0.785,-0.789,-0.7912,-0.795,-0.7992,-0.8011,-0.8011,-0.8069,-0.8056,-0.8056,-0.8059,-0.8083,-0.8086,-0.8089,-0.805,-0.805,-0.8049,0,0,-0.7638,-0.7664,-0.7694,-0.7719,-0.7757,-0.7778,-0.7786,-0.7827,-0.7842,-0.7883,-0.7898,-0.7927,-0.7984,-0.801,-0.8031,-0.8062,-0.8072,-0.8072,-0.8079,-0.8102,-0.8104,-0.8107,-0.8118,-0.8122,-0.8075,-0.8075,-0.8075,0,-0.7638,-0.7685,-0.7709,-0.7741,-0.7762,-0.778,-0.7811,-0.7835,-0.7882,-0.7897,-0.7895,-0.7967,-0.7993,-0.8041,-0.8049,-0.8065,-0.8074,-0.8067,-0.8102,-0.8105,-0.8108,-0.8119,-0.8123,-0.8075,-0.8075,-0.8075,-0.8075,0,-0.7683,-0.7715,-0.7735,-0.778,-0.7804,-0.7835,-0.7863,-0.7885,-0.7898,-0.7919,-0.7961,-0.7993,-0.8033,-0.8045,-0.8058,-0.8095,-0.8093,-0.8096,-0.8093,-0.811,-0.8121,-0.8126,-0.8075,-0.8075,-0.8075,-0.8075,0,0,-0.7699,-0.7755,-0.7762,-0.7782,-0.7825,-0.7851,-0.7883,-0.7921,-0.7939,-0.7971,-0.7999,-0.8046,-0.8049,-0.8073,-0.8089,-0.8109,-0.8132,-0.811,-0.8111,-0.8113,-0.8174,-0.8171,-0.8176,-0.8138,-0.8139,-0.814,-0.8171,0,-0.7727,-0.7785,-0.7806,-0.7854,-0.7884,-0.7901,-0.7929,-0.7958,-0.7979,-0.8007,-0.803,-0.8064,-0.8065,-0.8079,-0.8099,-0.8125,-0.8144,-0.8123,-0.8165,-0.8166,-0.8155,-0.8182,-0.818,-0.8207,-0.8175,-0.8176,-0.8176,0,-0.7768,-0.7799,-0.7849,-0.7888,-0.7902,-0.7926,-0.7963,-0.799,-0.8024,-0.8038,-0.8063,-0.8078,-0.8112,-0.8107,-0.8155,-0.8139,-0.8158,-0.8173,-0.8174,-0.818,-0.8173,-0.8188,-0.8217,-0.8221,-0.8183,-0.8183,-0.8182,0,-0.7775,-0.783,-0.7867,-0.7884,-0.793,-0.7947,-0.7967,-0.8,-0.8021,-0.8053,-0.8067,-0.8103,-0.8123,-0.815,-0.8174,-0.8168,-0.822,-0.8216,-0.8233,-0.8232,-0.8244,-0.8243,-0.8276,-0.8255,-0.8254,-0.8254,-0.8254,0,-0.7805,-0.7835,-0.787,-0.7893,-0.7927,-0.7952,-0.7985,-0.8006,-0.8035,-0.8063,-0.8079,-0.8105,-0.8135,-0.8164,-0.8183,-0.822,-0.8229,-0.8241,-0.8246,-0.824,-0.8238,-0.8253,-0.8252,-0.8256,-0.8255,-0.8255,-0.8255,0,-0.7819,-0.7844,-0.7885,-0.7925,-0.7936,-0.7959,-0.7993,-0.8016,-0.8037,-0.8071,-0.8081,-0.8114,-0.8149,-0.8175,-0.8221,-0.8234,-0.8274,-0.8278,-0.8262,-0.8265,-0.8279,-0.8278,-0.8323,-0.8331,-0.8304,-0.8304,-0.8304,0,-0.7836,-0.7859,-0.7901,-0.792,-0.794,-0.7971,-0.7993,-0.8017,-0.8039,-0.8079,-0.8097,-0.8133,-0.8164,-0.822,-0.8248,-0.8283,-0.8289,-0.8303,-0.8295,-0.8288,-0.829,-0.8288,-0.8291,-0.8304,-0.8304,-0.8304,-0.8304,0,-0.7864,-0.7875,-0.7906,-0.794,-0.7965,-0.7994,-0.8023,-0.8038,-0.8068,-0.8091,-0.8127,-0.8151,-0.8197,-0.8233,-0.8271,-0.8292,-0.8304,-0.8306,-0.8312,-0.8307,-0.8296,-0.8302,-0.8265,-0.8306,-0.8306,-0.8305,-0.8305,-0.8305,-0.7881,-0.7902,-0.7935,-0.7968,-0.7992,-0.8018,-0.8042,-0.8065,-0.8095,-0.8134,-0.8147,-0.8184,-0.8217,-0.8269,-0.829,-0.832,-0.832,-0.8328,-0.8331,-0.8332,-0.8332,-0.8291,-0.8327,-0.8327,-0.8327,-0.8327,-0.8327,0,-0.791,-0.7932,-0.7962,-0.8001,-0.8027,-0.8035,-0.8067,-0.8088,-0.812,-0.815,-0.8179,-0.822,-0.8255,-0.8285,-0.8322,-0.8339,-0.8346,-0.8348,-0.8347,-0.8352,-0.833,-0.8321,-0.8343,-0.8343,-0.8343,-0.8343,-0.8343,-0.8343,-0.7929,-0.7965,-0.798,-0.8029,-0.805,-0.8086,-0.8104,-0.8128,-0.8152,-0.8197,-0.8225,-0.8245,-0.8275,-0.8313,-0.8345,-0.8353,-0.8366,-0.8367,-0.8377,-0.8356,-0.8354,-0.8352,-0.8344,-0.837,-0.837,-0.8397,-0.8397,-0.8397]}]]